Location: Miss�
(46.9484°N, 0.1922°W)
Time: 11:23:29
(UTC+00:00)

CSL-04 Debris - Pass Details

Date: 02 March 2021
Orbit: 826 x 848 km, 98.9° (Epoch: 11 April)

Event Time Altitude Azimuth Distance (km) Brightness Sun altitude
Rises 18:39:12 0° 153° (SSE) 3,371 7.1 -9.5°
Reaches altitude 10° 18:41:33 10° 150° (SSE) 2,444 6.3 -9.9°
Maximum altitude 18:46:54 63° 71° (ENE) 937 4.2 -10.8°
Drops below altitude 10° 18:52:19 10° 351° (N) 2,475 6.8 -11.8°
Sets 18:54:42 0° 349° (NNW) 3,417 7.6 -12.2°
